Regional Weather Roundup
Issued by NWS

Home | Current Version | Previous Version | Graphics & Text | Print | Product List | Glossary On
Versions: 1 2 3 4 5 6 7 8 9 10 11 12 13 14 15 16 17 18 19 20 21 22 23 24 25 26 27 28 29 30 31 32 33 34 35 36 37 38 39 40 41 42 43 44 45 46 47 48 49 50
000
ASUS43 KTOP 171108
RWRKS

WEATHER ROUNDUP FOR KANSAS
NATIONAL WEATHER SERVICE GOODLAND KS
600 AM CDT TUE OCT 17 2017

NOTE:  "FAIR" INDICATES FEW OR NO CLOUDS BELOW 12,000 FEET WITH NO
SIGNIFICANT WEATHER AND/OR OBSTRUCTIONS TO VISIBILITY.

KSZ001>006-013>018-027>032-041>047-171200-
NORTHWEST KANSAS

CITY           SKY/WX    TMP DP  RH WIND       PRES   REMARKS
GOODLAND       CLOUDY    37  29  72 W7        30.17R
HILL CITY      CLEAR     41  37  86 W5        30.11R
RUSSELL        CLEAR     45  39  79 S14       30.11R
$$

KSZ061>065-074>080-084>089-171200-
SOUTHWEST KANSAS

CITY           SKY/WX    TMP DP  RH WIND       PRES   REMARKS
DODGE CITY     CLEAR     42  34  73 S9        30.14S
ELKHART          N/A     44  37  76 W10         N/A
GARDEN CITY    CLOUDY    38  33  82 S6        30.13S
GREAT BEND     CLEAR     44  37  76 S8        30.14S
LIBERAL        CLOUDY    41  36  82 CALM      30.16R
PRATT          CLEAR     45  37  75 S10       30.16R
$$

KSZ066>073-081>083-090>101-171200-
SOUTHEAST KANSAS

CITY           SKY/WX    TMP DP  RH WIND       PRES   REMARKS
CHANUTE        PTCLDY    48  41  76 S7        30.23F
COFFEYVILLE    PTCLDY    44  41  89 CALM      30.25R
HUTCHINSON     CLEAR     48  42  80 S8        30.16F
MEDICINE LODGE   N/A     46  39  76 SE8       30.18S
NEWTON         CLEAR     49  40  71 S15       30.18F
PARSONS        CLOUDY    48  40  73 CALM      30.26R
WICHITA INTL   CLEAR     46  42  86 S9        30.20R
WICHITA JABRA  CLEAR     46  41  82 S9        30.19S
WICHITA MCCONL CLEAR     46  39  77 S8        30.20S
WINFIELD       CLEAR     47  42  83 S8        30.23S
$$

KSZ007>012-019>026-033>040-048>060-102>105-171200-
NORTHEAST KANSAS

CITY           SKY/WX    TMP DP  RH WIND       PRES   REMARKS
CONCORDIA      CLEAR     50  40  68 S9        30.11S
EMPORIA        PTCLDY    48  38  68 S14       30.18F
LAWRENCE       CLOUDY    46  42  86 E6        30.20S
MANHATTAN      CLEAR     47  41  80 CALM      30.16R
MARYSVILLE     CLEAR     50  41  71 S7        30.13S
OLATHE IND     PTCLDY    45  41  86 S7        30.22S
OLATHE EXE     CLEAR     45  40  82 S7        30.22R
SALINA         CLEAR     52  42  69 S10       30.13F
TOPEKA BILLARD PTCLDY    52  41  66 CALM      30.19R
TOPEKA FORBES  CLOUDY    51  41  68 S9        30.17F
$$




USA.gov is the U.S. government's official web portal to all federal, state and local government web resources and services.